sat.trackr.live / text

‹ back to catalog

STARLINK-4673

NORAD 53589 · 2022-104B

PAYLOAD ACTIVE UNKNOWN

§ Identity

Operator
Country
US
Launch date
2022-08-28
Launch site
AFETR
Launch vehicle
Mass (kg)
RCS (m²)

Purposes: comms

External: N2YO · Heavens-Above · Gunter

§ Orbital elements

Epoch: 2026-05-25T01:28:27.662592Z

Period
95.44 min
Inclination
53.2159°
Eccentricity
0.0001250
Mean motion
15.08840787 rev/d
Perigee alt
538.9 km
Apogee alt
540.6 km
Semi-major
6,917.9 km
B*
4.7859e-5
RAAN
261.3240°
Arg perigee
89.7886°
Mean anomaly
270.3249°
Rev number
20,747

§ Raw data

STARLINK-46731 53589U 22104B   26145.06143128  .00000474  00000+0  47859-4 0  99932 53589  53.2159 261.3240 0001250  89.7886 270.3249 15.08840787207474

JSON: /api/v1/satellites/53589 · /tle

For live sub-satellite position, see the globe view (requires WebGL).

§ Visibility from observer

Set your observer location to see the next 7 days of passes ≥ 10°. The values pass through the URL so the page stays shareable.

No JS? Fill the form by hand. The geolocation button needs JavaScript.